Location: Nebula Knoll Observatory
(43.6666°N, 71.0000°W)
Time: 12:45:44
(UTC-04:00)

Daily predictions for brighter satellites

Satellite Brightness Start Highest point End
(mag) Time Altitude Azimuth Time Altitude Azimuth Time Altitude Azimuth
Cosmos 1680 Rocket 4.3 20:38:32 10° SSE 20:43:04 31° E 20:47:36 10° NE
SPOT 5 4.2 20:44:40 10° ESE 20:47:46 20° ENE 20:50:54 10° NNE
Cosmos 1812 4.3 20:45:16 10° SSW 20:48:55 40° WNW 20:52:36 10° N
Cosmos 1709 Rocket 4.4 20:45:36 10° NNW 20:51:50 67° W 20:57:57 10° S
Cosmos 1743 2.9 20:49:04 10° N 20:52:54 54° E 20:56:43 10° SSE
Iridium 4 Rocket 4.2 20:49:36 10° N 20:54:27 58° W 20:59:43 10° SSW
Cosmos 1346 3.8 20:53:02 10° SSE 20:55:30 29° E 20:57:59 10° NNE
Envisat 3.3 20:51:46 10° S 20:56:50 73° WSW 21:01:56 10° NNW
Cosmos 405 4.4 20:55:17 10° NNE 20:58:13 23° ENE 21:00:54 11° SE
Spot 1 4.4 20:55:08 10° S 20:59:41 71° WSW 21:04:02 10° NNW
Terra 4.0 21:00:44 10° ENE 21:01:52 11° ENE 21:03:02 10° NE
ASTEX 1 3.7 20:57:46 10° SSE 21:02:29 49° E 21:07:12 10° N
Aureole 3 Rocket 3.8 20:56:54 10° S 21:03:29 58° E 21:08:11 10° NNE
Tiangong 2 2.4 21:09:03 10° SSW 21:11:32 21° SSE 21:13:19 14° ESE
Cosmos 1437 Rocket 4.2 21:08:36 10° NNE 21:11:36 21° ENE 21:13:57 13° ESE
Meteor 2-9 Rocket 4.4 21:07:24 10° N 21:12:45 54° ENE 21:17:54 12° SSE
Aureole 1 Rocket 2.9 21:09:52 10° S 21:13:00 34° ESE 21:15:48 10° NE
Okean 1-7 Rocket 4.2 21:09:08 10° SSE 21:13:13 37° E 21:17:22 10° NNE
NOSS 2-2 (E) 3.5 21:10:10 10° SW 21:14:12 90° NW 21:18:59 10° NE
Cosmos 1238 Rocket 4.3 21:09:00 10° SSE 21:15:29 54° E 21:21:51 10° NNE
DNEPR-1 R/B 3.6 21:12:22 10° NNW 21:16:36 69° NE 21:20:18 15° SE
Meteor 2-4 Rocket 3.8 21:15:19 10° S 21:20:49 62° E 21:26:33 10° NNE
Cosmos 1666 2.6 21:19:47 10° N 21:23:34 85° E 21:26:56 12° S
ISS -2.8 21:21:06 10° SSW 21:23:53 25° SE 21:26:39 10° E
Meteor 2-13 Rocket 4.5 21:19:23 10° N 21:25:29 87° W 21:31:34 10° S
OAO 2 Rocket 4.2 21:23:58 10° SW 21:28:13 29° S 21:31:02 17° SE
Cosmos 923 Rocket 4.1 21:23:06 10° SSW 21:28:27 82° WNW 21:33:47 10° NNE
Cosmos 1833 Rocket 4.5 21:29:45 12° ESE 21:30:32 12° E 21:32:37 10° ENE
Cosmos 2184 Rocket 4.2 21:25:36 10° N 21:31:59 78° W 21:38:16 10° S
Cosmos 2074 Rocket 4.2 21:25:57 10° N 21:32:11 75° W 21:38:25 10° S
Cosmos 921 Rocket 4.5 21:29:49 10° N 21:33:34 25° ENE 21:36:04 16° ESE
CZ-3A R/B 2.5 21:31:02 10° SSW 21:33:08 17° S 21:33:08 17° S
Cosmos 1610 Rocket 4.5 21:29:41 10° N 21:36:02 81° E 21:41:40 13° S
Lacrosse 5 rocket 4.4 21:35:55 10° NW 21:38:46 16° N 21:41:39 10° NNE
Cosmos 1606 Rocket 4.0 21:35:09 10° N 21:39:17 43° ENE 21:41:41 22° SE
USA 245 2.6 21:38:45 29° SE 21:39:45 48° ENE 21:42:08 10° N
Intercosmos 24 3.7 21:36:45 10° N 21:40:54 69° E 21:43:05 22° SSE
YAOGAN 11 4.0 21:40:59 19° SSE 21:44:04 83° ENE 21:48:24 10° NNW
Cosmos 1656 Rocket 4.5 21:39:43 10° NW 21:44:52 44° WSW 21:49:49 11° S
YAOGAN 6 4.1 21:42:33 10° SSW 21:45:43 31° W 21:48:53 10° NNW
ERS-1 Rocket 3.5 21:41:29 10° S 21:46:20 58° W 21:51:19 10° NNW
USA 267 4.4 21:42:09 10° E 21:46:28 18° ESE 21:46:46 18° SE
MetOp-A 4.3 21:45:09 14° S 21:49:45 75° WSW 21:55:08 10° NNW
Meteor 1-23 Rocket 4.1 21:44:27 10° S 21:50:01 83° E 21:55:39 10° NNE
Cosmos 1726 Rocket 3.9 21:46:05 10° N 21:50:17 47° ENE 21:52:23 26° SE
MOS 1-B Rocket 4.0 21:46:03 15° S 21:50:54 80° WSW 21:57:18 10° NNW
Cosmos 405 Rocket 4.4 21:49:23 10° SW 21:52:48 33° WNW 21:56:18 10° N
GENESIS II 4.5 21:49:05 10° NW 21:53:01 62° WSW 21:55:01 26° SSE
Cosmos 1515 4.2 21:53:03 29° SE 21:54:26 41° E 21:58:03 10° NNE
Meteor 1-4 Rocket 4.4 21:52:52 10° NNE 21:55:16 17° ENE 21:56:01 16° E
H-2A R/B 2.1 21:52:51 23° SE 21:55:47 60° ENE 22:00:44 10° N
Cosmos 1980 Rocket 4.2 21:52:55 10° N 21:56:32 17° NE 22:00:08 10° E
Cosmos 2058 Rocket 3.7 21:52:31 10° N 21:56:42 41° ENE 21:58:34 27° SE
Meteor 1-15 Rocket 4.2 21:51:52 10° N 21:57:31 89° E 22:01:26 20° S
Cosmos 2112 Rocket 4.4 21:56:07 10° SSW 22:01:17 64° WNW 22:06:29 10° NNE
Cosmos 962 Rocket 4.5 21:55:01 10° N 22:01:19 72° E 22:05:22 23° SSE
Cosmos 192 4.5 21:57:02 10° SSW 22:01:55 75° WNW 22:06:51 10° NNE
Cosmos 1025 Rocket 3.2 21:58:33 12° SSW 22:02:28 72° W 22:06:44 10° N
CENTAUR R/B 3.8 21:55:09 10° NW 22:02:39 46° WSW 22:09:18 15° S
Cosmos 1441 Rocket 4.2 22:01:53 10° SSW 22:05:29 44° WNW 22:09:05 10° N
Cosmos 1624 Rocket 4.0 22:02:46 10° NNW 22:08:05 85° ENE 22:10:57 28° SSE
PSLV R/B 3.5 22:07:45 10° W 22:10:40 43° SSW 22:10:40 43° SSW
Cosmos 2154 Rocket 4.3 22:09:16 10° NNW 22:15:34 67° W 22:20:26 18° S
Nimbus 7 Rocket 4.4 22:10:51 10° NNE 22:16:57 89° ESE 22:22:27 13° SSW
SL-08 RB Rocket 3.9 22:14:43 25° S 22:17:13 63° WSW 22:21:40 10° NNW
ARGOS 3.6 22:13:34 19° S 22:17:22 57° W 22:22:44 10° NNW
COSMOS 2406 4.5 22:12:40 10° SW 22:18:05 42° WNW 22:23:30 10° NNE
SL-27 R/B 4.1 22:16:08 10° SW 22:19:31 35° WNW 22:22:55 10° N
SL-8 Rocket 4.1 22:13:38 10° N 22:19:51 62° E 22:23:03 29° SSE
Landsat 7 3.7 22:21:40 34° SSE 22:23:45 84° ENE 22:28:33 10° NNW
Cosmos 2366 rocket 4.3 22:17:51 10° N 22:23:50 49° ENE 22:26:33 30° SE
SPOT 5 3.6 22:23:04 20° SSW 22:25:35 40° W 22:29:42 10° NNW
Cosmos 2278 3.7 22:20:25 10° NNW 22:26:10 75° ENE 22:28:45 34° SE
H-2A R/B 2.3 22:24:49 38° SE 22:26:21 61° ENE 22:30:51 10° N
Cosmos 2056 Rocket 3.5 22:21:38 10° NNW 22:26:48 72° WSW 22:29:09 32° S
Cosmos 2082 Rocket 2.6 22:28:02 34° SSE 22:29:44 42° ESE 22:35:03 10° NE
Cosmos 1626 Rocket 3.9 22:37:18 42° ESE 22:37:47 44° E 22:41:54 10° NNE
CZ-4B R/B 4.0 22:33:26 10° NNE 22:38:12 41° E 22:39:08 37° SE
Terra 1.7 22:37:11 42° SSE 22:38:49 83° ENE 22:43:36 10° NNW
Cosmos 839 Rocket 4.3 22:34:29 10° NW 22:41:01 78° WSW 22:44:54 32° SSE
Cosmos 2369 3.7 22:39:00 10° NNW 22:44:46 81° WSW 22:46:58 39° SSE
Cosmos 967 Rocket 4.4 22:39:37 10° SSW 22:45:53 87° WNW 22:52:13 10° NNE
Spot 4 4.2 22:45:18 41° ESE 22:46:35 53° ENE 22:51:15 10° N
SPOT 1/Viking Rocket 4.5 22:44:17 23° SSW 22:47:02 41° W 22:51:55 10° NNW
COSMOS 2487 2.3 22:47:21 81° SSW 22:47:32 89° ESE 22:51:08 10° NNE
Cosmos 1437 Rocket 4.5 22:44:39 10° NW 22:47:53 26° W 22:49:25 20° SW
Tiangong 2 3.4 22:44:48 10° WSW 22:45:37 16° WSW 22:45:37 16° WSW
Cosmos 1420 Rocket 4.5 22:43:00 10° N 22:48:09 50° ENE 22:49:47 37° ESE
Cosmos 1959 Rocket 4.5 22:44:18 10° N 22:50:43 88° E 22:53:30 37° S
SL-08 R/B 4.4 22:44:38 10° N 22:50:47 78° E 22:53:11 39° SSE
SL-16 R/B 4.3 22:50:38 10° N 22:54:23 18° NE 22:58:06 10° E
Cosmos 1697 Rocket 2.8 22:48:56 10° NNW 22:54:32 64° ENE 22:56:25 41° SE
Cosmos 1953 4.1 22:52:00 10° NNE 22:55:02 20° ENE 22:55:13 20° ENE
IGS 5A 3.6 22:56:43 52° SSW 22:57:30 64° WSW 23:01:39 10° NNW
Cosmos 1452 Rocket 3.4 22:53:48 10° NNW 22:59:06 89° WSW 23:00:34 49° SSE
Cosmos 2218 Rocket 4.0 22:53:54 10° N 23:00:04 79° W 23:02:38 38° S
ISS -2.9 22:57:01 10° WSW 23:00:13 48° NNW 23:03:26 10° NE
DELTA 2 DEB (DPAF) 4.2 23:01:37 56° ESE 23:02:19 66° ENE 23:06:48 10° N
Iridium 2 4.1 23:01:51 10° N 23:05:19 49° ENE 23:05:19 49° ENE
Cosmos 1271 Rocket 3.3 23:02:00 10° N 23:05:37 44° ENE 23:05:37 44° ENE
Cosmos 2228 4.0 23:01:44 10° NNW 23:05:46 40° W 23:06:54 33° SW
deb Chang Zheng 4 3.8 23:06:00 10° N 23:10:18 64° WNW 23:11:26 44° SW
Cosmos 1602 Rocket 3.5 23:10:37 64° SSW 23:11:14 82° W 23:15:36 10° N
Cosmos 921 Rocket 4.2 23:07:52 10° NW 23:11:54 33° W 23:12:53 30° SW
Cosmos 1833 Rocket 2.6 23:11:23 40° SSW 23:13:33 88° ESE 23:19:13 10° NNE
Cosmos 1656 3.7 23:09:33 10° NNW 23:14:57 64° WSW 23:16:17 48° SSW
ATLAS CENTAUR R/B 3.9 23:15:56 10° NNE 23:17:13 11° NE 23:18:28 10° NE
Lacrosse 5 rocket 4.1 23:16:15 10° NNW 23:19:35 19° NNE 23:22:55 10° ENE
Meteor 1-21 4.1 23:19:44 52° S 23:21:09 76° E 23:26:53 10° NNE
CZ-4 R/B 4.2 23:19:50 10° N 23:24:48 63° WNW 23:26:31 39° SW
Cosmos 1766 3.4 23:21:26 10° NNW 23:25:11 69° WNW 23:25:11 69° WNW
Cosmos 468 4.4 23:24:10 51° SSW 23:25:31 87° WNW 23:30:51 10° NNE
USA 267 3.1 23:23:39 10° NE 23:30:12 72° SE 23:34:02 27° SW
Meteor 1-4 Rocket 4.0 23:27:18 10° NNW 23:30:20 30° W 23:30:20 30° W
Nadezhda 3 Rocket 4.0 23:29:12 49° SSE 23:31:00 73° E 23:37:21 10° NNE
Cosmos 1758 3.7 23:30:16 10° N 23:33:51 56° NE 23:33:51 56° NE
H-2A R/B 4.1 23:33:29 13° WSW 23:35:39 16° W 23:38:45 10° NW
Cosmos 2360 Rocket 4.5 23:35:52 10° N 23:39:25 17° NE 23:42:58 10° E
Cosmos 1980 Rocket 2.1 23:35:41 10° NNW 23:41:23 89° ENE 23:42:26 61° SSE
Cosmos 1470 4.0 23:39:10 10° N 23:42:26 34° ENE 23:42:26 34° ENE
SeaSat 1 2.5 23:46:39 60° ESE 23:47:23 70° ENE 23:52:19 10° NNW
SME Rocket 3.5 23:46:35 63° SSE 23:47:29 89° E 23:51:53 10° NNW
Cosmos 1821 Rocket 4.0 23:42:30 10° N 23:48:47 73° E 23:50:18 53° SSE
Cosmos 2322 Rocket 3.1 23:44:25 10° NNW 23:49:48 40° ENE 23:51:42 31° E
